Flag for France Weather past 2 weeks in Reims, France

Now
37 °F

Clear.


Feels Like: 35 °F
Forecast: 38 / 54 °F
Wind: 3 mph from Northeast

Location: Chalons-Vatry


UV Index: 3 (Moderate)

Visibility: N/A


Pressure: 30.21 "Hg

Humidity: 81%

Dew point: 32 °F

Location of ReimsLocation

Historic Weather in Reims

°F

Reims temperature yesterday

Maximum temperature yesterday: 59 °F (at 3:30 PM)
Minimum temperature yesterday: 32 °F (at 5:00 AM)
Average temperature yesterday: 46 °F

Past Weeks' High & Low Weather Summary

 TemperatureHumidityPressure
High72 °F (Apr 7, 3:30 PM)100% (Apr 5, 6:30 AM)30.36 "Hg (Apr 5, 6:30 AM)
Low32 °F (Apr 15, 6:30 AM)29% (Apr 16, 4:00 PM)29.56 "Hg (Apr 3, 2:30 AM)
Average52 °F72%30.07 "Hg
* Reported Apr 2 7:00 AM — Apr 17 7:30 AM, Reims, Weather by CustomWeather, © 2014

Note: Actual official high and low records may vary slightly from our data, if they occured in-between our weather recording intervals... More about our weather records

Advertising

Historic Weather Conditions — Data for Previous 24 hours

 ConditionsComfort  
Time TempWeatherWind HumidityBarometerVisibility
7:30 AM
Apr 17
34 °FClear.5 mph87%30.24 "HgN/A
7:00 AM32 °FClear.5 mph93%30.24 "HgN/A
6:30 AM34 °FClear.5 mph81%30.21 "HgN/A
6:00 AM34 °FClear.5 mph87%30.21 "HgN/A
5:30 AM34 °FClear.7 mph87%30.24 "HgN/A
5:00 AM36 °FClear.7 mph81%30.24 "HgN/A
4:30 AM39 °FClear.7 mph70%30.24 "HgN/A
4:00 AM39 °FClear.9 mph70%30.24 "HgN/A
3:30 AM39 °FClear.7 mph70%30.24 "HgN/A
3:00 AM41 °FClear.10 mph66%30.24 "HgN/A
2:30 AM41 °FClear.12 mph66%30.24 "HgN/A
2:00 AM43 °FClear.12 mph61%30.27 "HgN/A
1:30 AM43 °FClear.12 mph61%30.27 "HgN/A
1:00 AM45 °FClear.10 mph57%30.27 "HgN/A
12:30 AM45 °FClear.13 mph57%30.27 "HgN/A
12:00 AM46 °FClear.13 mph53%30.27 "HgN/A
11:30 PM
Apr 16
46 °FClear.14 mph53%30.27 "HgN/A
11:00 PM45 °FClear.10 mph57%30.27 "HgN/A
10:30 PM46 °FClear.10 mph53%30.27 "HgN/A
10:00 PM48 °FClear.10 mph54%30.27 "HgN/A
9:30 PM48 °FClear.8 mph54%30.30 "HgN/A
9:00 PM50 °FClear.7 mph50%30.27 "HgN/A
8:30 PM52 °FClear.9 mph47%30.27 "HgN/A
8:00 PM55 °FClear.9 mph38%30.27 "HgN/A
7:30 PM57 °FClear.13 mph36%30.27 "HgN/A
7:00 PM57 °FClear.12 mph36%30.27 "HgN/A
6:30 PM59 °FClear.13 mph31%30.27 "HgN/A
6:00 PM59 °FClear.14 mph31%30.27 "HgN/A
5:30 PM59 °FClear.14 mph31%30.30 "HgN/A
5:00 PM59 °FClear.14 mph31%30.30 "HgN/A
4:30 PM59 °FClear.14 mph31%30.30 "HgN/A
4:00 PM59 °FClear.14 mph29%30.30 "HgN/A
3:30 PM59 °FClear.15 mph31%30.33 "HgN/A
3:00 PM57 °FClear.13 mph33%30.33 "HgN/A
2:30 PM57 °FClear.13 mph33%30.33 "HgN/A
2:00 PM55 °FClear.14 mph36%30.33 "HgN/A
1:30 PM55 °FClear.14 mph38%30.33 "HgN/A
1:00 PM54 °FClear.13 mph38%30.33 "HgN/A
12:30 PM52 °FClear.14 mph44%30.36 "HgN/A
12:00 PM52 °FClear.13 mph47%30.36 "HgN/A
11:30 AM50 °FClear.13 mph50%30.36 "HgN/A
11:00 AM50 °FClear.12 mph50%30.36 "HgN/A
10:30 AM48 °FClear.13 mph58%30.36 "HgN/A
10:00 AM46 °FClear.13 mph66%30.36 "HgN/A
9:30 AM43 °FClear.10 mph76%30.36 "HgN/A
9:00 AM39 °FClear.8 mph81%30.36 "HgN/A
8:30 AM36 °FClear.7 mph93%30.36 "HgN/A
8:00 AM34 °FClear.7 mph87%30.33 "HgN/A
Weather by CustomWeather, © 2014

See weather overview